Flag for Namibia Weather past 2 weeks in Windhoek, Namibia

Now
57 °F

Refreshingly cool.


Feels Like: 56 °F
Forecast: 54 / 80 °F
Wind: 6 mph from East

Location: Windhoek

Current Time: Apr 27, 2015 at 6:36:26 AM

Latest Report: Apr 27, 2015 at 6:00 AM


Visibility: N/A

Pressure: 30.24 "Hg

Humidity: 55%

Dew point: 41 °F

Location of WindhoekLocation

Historic Weather in Windhoek — Graph

°F

Windhoek temperature yesterday

Maximum temperature yesterday: 81 °F (at 1:00 PM)
Minimum temperature yesterday: 57 °F (at 5:00 AM)
Average temperature yesterday: 67 °F

Past Weeks' High & Low Weather Summary

 TemperatureHumidityPressure
High82 °F (Apr 20, 4:00 PM)72% (Apr 13, 11:00 PM)30.42 "Hg (Apr 13, 11:00 PM)
Low52 °F (Apr 18, 5:00 AM)9% (Apr 19, 2:00 PM)30.09 "Hg (Apr 15, 3:00 PM)
Average67 °F39%30.25 "Hg
* Reported Apr 12 5:00 AM — Apr 27 4:00 AM, Windhoek, Weather by CustomWeather, © 2015

Note: Actual official high and low records may vary slightly from our data, if they occured in-between our weather recording intervals... More about our weather records

Advertising

Windhoek weather history for previous 24 hours

 ConditionsComfort  
Time TempWeatherWind HumidityBarometerVisibility
4:00 AM
Mon, Apr 27
59 °FRefreshingly cool.1 mph48%30.24 "HgN/A
3:00 AM61 °FRefreshingly cool.2 mph39%30.27 "HgN/A
1:00 AM63 °FMild.2 mph39%30.27 "HgN/A
12:00 AM64 °FMild.1 mph37%30.27 "HgN/A
11:00 PM
Sun, Apr 26
64 °FMild.5 mph37%30.24 "HgN/A
10:00 PM68 °FMild.2 mph28%30.27 "HgN/A
9:00 PM68 °FMild.1 mph43%30.27 "HgN/A
8:00 PM68 °FMild.6 mph43%30.24 "HgN/A
7:00 PM70 °FClear.3 mph38%30.24 "Hg10 mi
6:00 PM72 °FClear.5 mph36%30.24 "Hg10 mi
5:00 PM75 °FClear.6 mph29%30.18 "Hg10 mi
4:00 PM81 °FScattered clouds.No wind23%30.21 "HgN/A
2:00 PM77 °FPassing clouds.3 mph26%30.24 "HgN/A
1:00 PM81 °FPassing clouds.3 mph24%30.27 "HgN/A
11:00 AM75 °FPassing clouds.3 mph31%30.33 "HgN/A
10:00 AM73 °FSunny.6 mph36%30.36 "Hg10 mi
9:00 AM70 °FSunny.3 mph40%30.36 "Hg10 mi
8:00 AM64 °FSunny.5 mph52%30.36 "Hg10 mi
7:00 AM59 °FSunny.5 mph55%30.33 "Hg10 mi
6:00 AM57 °FRefreshingly cool.3 mph59%30.33 "HgN/A
Weather by CustomWeather, © 2015

See weather overviewHow to use our weather pages